Location: Unspecified
(53.2500°N, 0.0000°E)
Time: 03:38:23
(UTC+00:00)

OTV 5 (USA 277) - Visible Passes

Search period start: 26 June 2019 00:00
Search period end: 06 July 2019 00:00
Orbit: 301 x 333 km, 54.5° (Epoch: 26 June)

Date Brightness Start Highest point End Pass type
(mag) Time Alt. Az. Time Alt. Az. Time Alt. Az.
26 Jun ? 00:41:07 10° WNW 00:43:55 59° SSW 00:46:41 10° ESE visible
26 Jun ? 02:16:18 10° WSW 02:17:47 13° SW 02:19:12 10° S visible
26 Jun ? 21:46:53 10° W 21:49:43 73° N 21:52:33 10° ENE visible
26 Jun ? 23:21:20 10° WNW 23:24:10 76° N 23:26:59 10° E visible
27 Jun ? 00:55:47 10° W 00:58:23 33° SSW 00:59:33 23° SSE visible
27 Jun ? 22:01:30 10° W 22:04:20 64° N 22:07:09 10° E visible
27 Jun ? 23:35:54 10° WNW 23:38:44 76° SSW 23:41:15 12° ESE visible
28 Jun ? 01:10:40 10° W 01:12:03 17° WSW 01:12:03 17° WSW visible
28 Jun ? 22:16:07 10° WNW 22:18:57 68° N 22:21:46 10° E visible
28 Jun ? 23:50:31 10° W 23:53:14 45° SSW 23:54:13 30° SSE visible
29 Jun ? 22:30:42 10° WNW 22:33:33 88° NNE 22:36:21 10° ESE visible
30 Jun ? 00:05:15 10° W 00:07:25 25° SW 00:07:25 25° SW visible
30 Jun ? 22:45:17 10° WNW 22:48:05 60° SSW 22:49:56 19° SE visible
01 Jul ? 00:20:26 10° WSW 00:20:47 11° WSW 00:20:47 11° WSW visible
01 Jul ? 21:25:30 10° WNW 21:28:20 76° NNE 21:31:09 10° E visible
01 Jul ? 22:59:56 10° W 23:02:32 34° SSW 23:03:23 27° S visible
02 Jul ? 21:40:04 10° WNW 21:42:54 77° SSW 21:45:43 10° ESE visible
02 Jul ? 23:14:49 10° W 23:16:54 19° SW 23:16:55 19° SW visible
03 Jul ? 21:54:40 10° W 21:57:24 45° SSW 21:59:38 14° SE visible
04 Jul ? 22:09:24 10° W 22:11:49 25° SW 22:13:17 17° S visible
05 Jul ? 22:24:33 10° WSW 22:26:07 14° SW 22:26:58 12° SSW visible
